Year,Month,Day,Hour,Minute,Value (Times are PST for temperature in C)
2010,06,22,15,05,23.00
2010,06,22,15,06,22.90
2010,06,22,15,07,22.90
2010,06,22,15,08,22.90
2010,06,22,15,09,22.80
2010,06,22,15,10,22.80
2010,06,22,15,11,22.80
2010,06,22,15,12,22.90
2010,06,22,15,13,22.90
2010,06,22,15,14,22.90
2010,06,22,15,15,23.00
2010,06,22,15,16,23.00
2010,06,22,15,17,23.10
2010,06,22,15,18,23.10
2010,06,22,15,19,23.10
2010,06,22,15,20,23.20
2010,06,22,15,21,23.30
2010,06,22,15,22,23.30
2010,06,22,15,23,23.40
2010,06,22,15,24,23.50
2010,06,22,15,25,23.50
2010,06,22,15,26,23.50
2010,06,22,15,27,23.50
2010,06,22,15,28,23.40
2010,06,22,15,29,23.40
2010,06,22,15,30,23.40
2010,06,22,15,31,23.50
2010,06,22,15,32,23.40
2010,06,22,15,33,23.30
2010,06,22,15,34,23.20
2010,06,22,15,35,23.20
2010,06,22,15,36,23.20
2010,06,22,15,37,23.10
2010,06,22,15,38,23.20
2010,06,22,15,39,23.20
2010,06,22,15,40,23.30
2010,06,22,15,41,23.40
2010,06,22,15,42,23.40
2010,06,22,15,43,23.30
2010,06,22,15,44,23.30
2010,06,22,15,45,23.30
2010,06,22,15,46,23.40
2010,06,22,15,47,23.40
2010,06,22,15,48,23.40
2010,06,22,15,49,23.30
2010,06,22,15,50,23.30
2010,06,22,15,51,23.30
2010,06,22,15,52,23.20
2010,06,22,15,53,23.30
2010,06,22,15,54,23.30
2010,06,22,15,55,23.30
2010,06,22,15,56,23.40
2010,06,22,15,57,23.40
2010,06,22,15,58,23.40
2010,06,22,15,59,23.40
2010,06,22,16,00,23.30
2010,06,22,16,01,23.30
2010,06,22,16,02,23.20
2010,06,22,16,03,23.20
2010,06,22,16,04,23.10
2010,06,22,16,05,23.10
2010,06,22,16,06,23.10
2010,06,22,16,07,23.10
2010,06,22,16,08,23.10
2010,06,22,16,09,23.10
2010,06,22,16,10,23.20
2010,06,22,16,11,23.20
2010,06,22,16,12,23.10
2010,06,22,16,13,23.00
2010,06,22,16,14,22.90
2010,06,22,16,15,22.90
2010,06,22,16,16,22.90
2010,06,22,16,17,23.00
2010,06,22,16,18,23.10
2010,06,22,16,19,23.20
2010,06,22,16,20,23.20
2010,06,22,16,21,23.10
2010,06,22,16,22,23.10
2010,06,22,16,23,23.10
2010,06,22,16,24,23.10
2010,06,22,16,25,23.00
2010,06,22,16,26,23.00
2010,06,22,16,27,22.90
2010,06,22,16,28,22.90
2010,06,22,16,29,22.90
2010,06,22,16,30,22.90
2010,06,22,16,31,23.00
2010,06,22,16,32,23.10
2010,06,22,16,33,23.10
2010,06,22,16,34,23.10
2010,06,22,16,35,23.00
2010,06,22,16,36,22.90
2010,06,22,16,37,22.90
2010,06,22,16,38,22.90
2010,06,22,16,39,22.90
2010,06,22,16,40,23.00
2010,06,22,16,41,23.00
2010,06,22,16,42,23.10
2010,06,22,16,43,23.10
2010,06,22,16,44,23.20
2010,06,22,16,45,23.30
2010,06,22,16,46,23.40
2010,06,22,16,47,23.40
2010,06,22,16,48,23.40
2010,06,22,16,49,23.30
2010,06,22,16,50,23.40
2010,06,22,16,51,23.40
2010,06,22,16,52,23.50
2010,06,22,16,53,23.50
2010,06,22,16,54,23.50
2010,06,22,16,55,23.40
2010,06,22,16,56,23.40
2010,06,22,16,57,23.30
2010,06,22,16,58,23.30
2010,06,22,16,59,23.30
2010,06,22,17,00,23.30
2010,06,22,17,01,23.40
2010,06,22,17,02,23.40
2010,06,22,17,03,23.50
2010,06,22,17,04,23.50
2010,06,22,17,05,23.60
2010,06,22,17,06,23.60
2010,06,22,17,07,23.60
2010,06,22,17,08,23.60
2010,06,22,17,09,23.60
2010,06,22,17,10,23.60
2010,06,22,17,11,23.50
2010,06,22,17,12,23.50
2010,06,22,17,13,23.40
2010,06,22,17,14,23.40
2010,06,22,17,15,23.40
2010,06,22,17,16,23.30
2010,06,22,17,17,23.30
2010,06,22,17,18,23.20
2010,06,22,17,19,23.20
2010,06,22,17,20,23.30
2010,06,22,17,21,23.30
2010,06,22,17,22,23.30
2010,06,22,17,23,23.40
2010,06,22,17,24,23.40
2010,06,22,17,25,23.40
2010,06,22,17,26,23.40
2010,06,22,17,27,23.30
2010,06,22,17,28,23.20
2010,06,22,17,29,23.20
2010,06,22,17,30,23.20
2010,06,22,17,31,23.20
2010,06,22,17,32,23.20
2010,06,22,17,33,23.20
2010,06,22,17,34,23.20
2010,06,22,17,35,23.20
2010,06,22,17,36,23.20
2010,06,22,17,37,23.20
2010,06,22,17,38,23.20
2010,06,22,17,39,23.10
2010,06,22,17,40,23.10
2010,06,22,17,41,23.00
2010,06,22,17,42,23.00
2010,06,22,17,43,22.90
2010,06,22,17,44,22.90
2010,06,22,17,45,22.90
2010,06,22,17,46,22.80
2010,06,22,17,47,22.80
2010,06,22,17,48,22.80
2010,06,22,17,49,22.80
2010,06,22,17,50,22.90
2010,06,22,17,51,22.90
2010,06,22,17,52,23.00
2010,06,22,17,53,23.00
2010,06,22,17,54,23.10
2010,06,22,17,55,23.10
2010,06,22,17,56,23.10
2010,06,22,17,57,23.10
2010,06,22,17,58,23.10
2010,06,22,17,59,23.10
2010,06,22,18,00,23.10
2010,06,22,18,01,23.20
2010,06,22,18,02,23.10
2010,06,22,18,03,23.10
2010,06,22,18,04,23.10
2010,06,22,18,05,23.00
2010,06,22,18,06,23.00
2010,06,22,18,07,22.90
2010,06,22,18,08,23.00
2010,06,22,18,09,23.00
2010,06,22,18,10,23.10
2010,06,22,18,11,23.10
2010,06,22,18,12,23.10
2010,06,22,18,13,23.10
2010,06,22,18,14,23.10
2010,06,22,18,15,23.10
2010,06,22,18,16,23.10
2010,06,22,18,17,23.10
2010,06,22,18,18,23.10
2010,06,22,18,19,23.10
2010,06,22,18,20,23.20
2010,06,22,18,21,23.10
2010,06,22,18,22,23.10
2010,06,22,18,23,23.10
2010,06,22,18,24,23.20
2010,06,22,18,25,23.20
2010,06,22,18,26,23.20
2010,06,22,18,27,23.30
2010,06,22,18,28,23.30
2010,06,22,18,29,23.30
2010,06,22,18,30,23.30
2010,06,22,18,31,23.30
2010,06,22,18,32,23.30
2010,06,22,18,33,23.30
2010,06,22,18,34,23.20
2010,06,22,18,35,23.20
2010,06,22,18,36,23.10
2010,06,22,18,37,23.00
2010,06,22,18,38,23.00
2010,06,22,18,39,22.90
2010,06,22,18,40,22.80
2010,06,22,18,41,22.80
2010,06,22,18,42,22.90
2010,06,22,18,43,22.90
2010,06,22,18,44,22.90
2010,06,22,18,45,22.80
2010,06,22,18,46,22.80
2010,06,22,18,47,22.80
2010,06,22,18,48,22.70
2010,06,22,18,49,22.60
2010,06,22,18,50,22.60
2010,06,22,18,51,22.50
2010,06,22,18,52,22.40
2010,06,22,18,53,22.40
2010,06,22,18,54,22.40
2010,06,22,18,55,22.30
2010,06,22,18,56,22.30
2010,06,22,18,57,22.30
2010,06,22,18,58,22.20
2010,06,22,18,59,22.20
2010,06,22,19,00,22.10
2010,06,22,19,01,22.00
2010,06,22,19,02,21.90
2010,06,22,19,03,21.80
2010,06,22,19,04,21.80
2010,06,22,19,05,21.80
2010,06,22,19,06,21.70
2010,06,22,19,07,21.70
2010,06,22,19,08,21.60
2010,06,22,19,09,21.60
2010,06,22,19,10,21.50
2010,06,22,19,11,21.50
2010,06,22,19,12,21.50
2010,06,22,19,13,21.60
2010,06,22,19,14,21.50
2010,06,22,19,15,21.50
2010,06,22,19,16,21.40
2010,06,22,19,17,21.40
2010,06,22,19,18,21.30
2010,06,22,19,19,21.30
2010,06,22,19,20,21.20
2010,06,22,19,21,21.20
2010,06,22,19,22,21.10
2010,06,22,19,23,21.10
2010,06,22,19,24,21.00
2010,06,22,19,25,21.00
2010,06,22,19,26,20.90
2010,06,22,19,27,20.80
2010,06,22,19,28,20.80
2010,06,22,19,29,20.70
2010,06,22,19,30,20.70
2010,06,22,19,31,20.70
2010,06,22,19,32,20.70
2010,06,22,19,33,20.70
2010,06,22,19,34,20.60
2010,06,22,19,35,20.60
2010,06,22,19,36,20.50
2010,06,22,19,37,20.50
2010,06,22,19,38,20.40
2010,06,22,19,39,20.40
2010,06,22,19,40,20.40
2010,06,22,19,41,20.40
2010,06,22,19,42,20.40
2010,06,22,19,43,20.40
2010,06,22,19,44,20.30
2010,06,22,19,45,20.30
2010,06,22,19,46,20.30
2010,06,22,19,47,20.30
2010,06,22,19,48,20.30
2010,06,22,19,49,20.30
2010,06,22,19,50,20.30
2010,06,22,19,51,20.20
2010,06,22,19,52,20.20
2010,06,22,19,53,20.10
2010,06,22,19,54,20.10
2010,06,22,19,55,20.10
2010,06,22,19,56,20.00
2010,06,22,19,57,20.00
2010,06,22,19,58,19.90
2010,06,22,19,59,19.90
2010,06,22,20,00,19.80
2010,06,22,20,01,19.80
2010,06,22,20,02,19.80
2010,06,22,20,03,19.80
2010,06,22,20,04,19.70
2010,06,22,20,05,19.70
2010,06,22,20,06,19.70
2010,06,22,20,07,19.60
2010,06,22,20,08,19.50
2010,06,22,20,09,19.50
2010,06,22,20,10,19.40
2010,06,22,20,11,19.40
2010,06,22,20,12,19.40
2010,06,22,20,13,19.40
2010,06,22,20,14,19.30
2010,06,22,20,15,19.30
2010,06,22,20,16,19.30
2010,06,22,20,17,19.30
2010,06,22,20,18,19.30
2010,06,22,20,19,19.30
2010,06,22,20,20,19.30
2010,06,22,20,21,19.30
2010,06,22,20,22,19.30
2010,06,22,20,23,19.30
2010,06,22,20,24,19.20
2010,06,22,20,25,19.20
2010,06,22,20,26,19.20
2010,06,22,20,27,19.20
2010,06,22,20,28,19.20
2010,06,22,20,29,19.10
2010,06,22,20,30,19.10
2010,06,22,20,31,19.10
2010,06,22,20,32,19.10
2010,06,22,20,33,19.00
2010,06,22,20,34,19.00
2010,06,22,20,35,19.00
2010,06,22,20,36,18.90
2010,06,22,20,37,18.90
2010,06,22,20,38,18.90
2010,06,22,20,39,18.90
2010,06,22,20,40,18.90
2010,06,22,20,41,18.90
2010,06,22,20,42,18.80
2010,06,22,20,43,18.70
2010,06,22,20,44,18.70
2010,06,22,20,45,18.70
2010,06,22,20,46,18.60
2010,06,22,20,47,18.60
2010,06,22,20,48,18.50
2010,06,22,20,49,18.50
2010,06,22,20,50,18.40
2010,06,22,20,51,18.40
2010,06,22,20,52,18.40
2010,06,22,20,53,18.40
2010,06,22,20,54,18.40
2010,06,22,20,55,18.40
2010,06,22,20,56,18.30
2010,06,22,20,57,18.30
2010,06,22,20,58,18.30
2010,06,22,20,59,18.30
2010,06,22,21,00,18.30
2010,06,22,21,01,18.30
2010,06,22,21,02,18.30
2010,06,22,21,03,18.30
2010,06,22,21,04,18.20
2010,06,22,21,05,18.20
2010,06,22,21,06,18.20
2010,06,22,21,07,18.10
2010,06,22,21,08,18.10
2010,06,22,21,09,18.10
2010,06,22,21,10,18.10
2010,06,22,21,11,18.10
2010,06,22,21,12,18.00
2010,06,22,21,13,18.00
2010,06,22,21,14,18.00
2010,06,22,21,15,17.90
2010,06,22,21,16,17.90
2010,06,22,21,17,17.90
2010,06,22,21,18,17.80
2010,06,22,21,19,17.80
2010,06,22,21,20,17.80
2010,06,22,21,21,17.80
2010,06,22,21,22,17.80
2010,06,22,21,23,17.80
2010,06,22,21,24,17.80
2010,06,22,21,25,17.80
2010,06,22,21,26,17.70
2010,06,22,21,27,17.70
2010,06,22,21,28,17.70
2010,06,22,21,29,17.70
2010,06,22,21,30,17.70
2010,06,22,21,31,17.70
2010,06,22,21,32,17.60
2010,06,22,21,33,17.60
2010,06,22,21,34,17.60
2010,06,22,21,35,17.60
2010,06,22,21,36,17.50
2010,06,22,21,37,17.50
2010,06,22,21,38,17.50
2010,06,22,21,39,17.40
2010,06,22,21,40,17.40
2010,06,22,21,41,17.40
2010,06,22,21,42,17.40
2010,06,22,21,43,17.30
2010,06,22,21,44,17.30
2010,06,22,21,45,17.30
2010,06,22,21,46,17.20
2010,06,22,21,47,17.20
2010,06,22,21,48,17.20
2010,06,22,21,49,17.20
2010,06,22,21,50,17.10
2010,06,22,21,51,17.10
2010,06,22,21,52,17.10
2010,06,22,21,53,17.10
2010,06,22,21,54,17.10
2010,06,22,21,55,17.00
2010,06,22,21,56,17.00
2010,06,22,21,57,16.90
2010,06,22,21,58,16.90
2010,06,22,21,59,16.90
2010,06,22,22,00,16.90
2010,06,22,22,01,16.90
2010,06,22,22,02,16.90
2010,06,22,22,03,16.80
2010,06,22,22,04,16.80
2010,06,22,22,05,16.80
2010,06,22,22,06,16.80
2010,06,22,22,07,16.80
2010,06,22,22,08,16.80
2010,06,22,22,09,16.80
2010,06,22,22,10,16.80
2010,06,22,22,11,16.70
2010,06,22,22,12,16.70
2010,06,22,22,13,16.70
2010,06,22,22,14,16.70
2010,06,22,22,15,16.70
2010,06,22,22,16,16.70
2010,06,22,22,17,16.60
2010,06,22,22,18,16.60
2010,06,22,22,19,16.60
2010,06,22,22,20,16.60
2010,06,22,22,21,16.60
2010,06,22,22,22,16.60
2010,06,22,22,23,16.60
2010,06,22,22,24,16.60
2010,06,22,22,25,16.60
2010,06,22,22,26,16.60
2010,06,22,22,27,16.60
2010,06,22,22,28,16.60
2010,06,22,22,29,16.60
2010,06,22,22,30,16.50
2010,06,22,22,31,16.50
2010,06,22,22,32,16.50
2010,06,22,22,33,16.50
2010,06,22,22,34,16.50
2010,06,22,22,35,16.50
2010,06,22,22,36,16.50
2010,06,22,22,37,16.40
2010,06,22,22,38,16.50
2010,06,22,22,39,16.40
2010,06,22,22,40,16.40
2010,06,22,22,41,16.40
2010,06,22,22,42,16.40
2010,06,22,22,43,16.30
2010,06,22,22,44,16.30
2010,06,22,22,45,16.30
2010,06,22,22,46,16.30
2010,06,22,22,47,16.20
2010,06,22,22,48,16.20
2010,06,22,22,49,16.20
2010,06,22,22,50,16.20
2010,06,22,22,51,16.20
2010,06,22,22,52,16.20
2010,06,22,22,53,16.20
2010,06,22,22,54,16.20
2010,06,22,22,55,16.10
2010,06,22,22,56,16.10
2010,06,22,22,57,16.10
2010,06,22,22,58,16.10
2010,06,22,22,59,16.10
2010,06,22,23,00,16.10
2010,06,22,23,01,16.10
2010,06,22,23,02,16.10
2010,06,22,23,03,16.10
2010,06,22,23,04,16.10
2010,06,22,23,05,16.10
2010,06,22,23,06,16.10
2010,06,22,23,07,16.10
2010,06,22,23,08,16.10
2010,06,22,23,09,16.00
2010,06,22,23,10,16.00
2010,06,22,23,11,16.00
2010,06,22,23,12,16.00
2010,06,22,23,13,16.00
2010,06,22,23,14,15.90
2010,06,22,23,15,15.90
2010,06,22,23,16,15.90
2010,06,22,23,17,15.90
2010,06,22,23,18,15.90
2010,06,22,23,19,15.90
2010,06,22,23,20,15.90
2010,06,22,23,21,15.90
2010,06,22,23,22,15.90
2010,06,22,23,23,15.90
2010,06,22,23,24,15.90
2010,06,22,23,25,15.90
2010,06,22,23,26,15.90
2010,06,22,23,27,15.90
2010,06,22,23,28,15.90
2010,06,22,23,29,15.90
2010,06,22,23,30,15.90
2010,06,22,23,31,15.90
2010,06,22,23,32,16.00
2010,06,22,23,33,16.00
2010,06,22,23,34,16.00
2010,06,22,23,35,16.00
2010,06,22,23,36,16.00
2010,06,22,23,37,16.00
2010,06,22,23,38,16.00
2010,06,22,23,39,16.00
2010,06,22,23,40,16.00
2010,06,22,23,41,16.00
2010,06,22,23,42,16.00
2010,06,22,23,43,16.00
2010,06,22,23,44,16.00
2010,06,22,23,45,16.00
2010,06,22,23,46,16.00
2010,06,22,23,47,16.00
2010,06,22,23,48,16.00
2010,06,22,23,49,16.00
2010,06,22,23,50,16.00
2010,06,22,23,51,16.00
2010,06,22,23,52,15.90
2010,06,22,23,53,15.90
2010,06,22,23,54,15.90
2010,06,22,23,55,15.90
2010,06,22,23,56,15.90
2010,06,22,23,57,15.90
2010,06,22,23,58,15.80
2010,06,22,23,59,15.80
